Other Public Products
Issued by NWS Grand Forks, ND

Home | Current Version | Previous Version | Text Only | Print | Product List | Glossary On
Versions: 1 2 3 4 5 6 7 8 9 10 11 12 13 14 15 16 17 18 19 20 21 22 23 24 25 26 27 28 29 30 31 32 33 34 35 36 37 38 39 40 41 42 43 44 45 46 47 48 49 50
000
FPUS83 KFGF 251831
OPUFGF
PRAIRIE TO PINES WEATHER ROUNDUP
NATIONAL WEATHER SERVICE EASTERN NORTH DAKOTA/GRAND FORKS ND
1200 PM CST SAT FEB 25 2017

 **SATELLITE DATA USED TO AUGMENT SKY COVER AT AUTOMATED STATIONS**
 *****  WEATHER ACROSS EASTERN NORTH DAKOTA  *****

CITY           SKY/WX    TMP DP  RH WIND       PRES   REMARKS
GRAND FORKS    PTSUNNY   31  19  61 W12       29.81F WCI  22
6HR MIN TEMP:  20; 6HR MAX TEMP:  32;

GRAND FORKS AF PTSUNNY   30  21  69 NW13      29.81F WCI  20
GRAND CITY NWS NOT AVBL
BUXTON         NOT AVBL
DEVILS LAKE    PTSUNNY   24  19  81 W12       29.81F WCI  13
6HR MIN TEMP:  20; 6HR MAX TEMP:  24;

FARGO          CLOUDY    30  21  69 SW14      29.85F WCI  19
6HR MIN TEMP:  18; 6HR MAX TEMP:  31;

WAHPETON ARPT  CLOUDY    32  19  59 W18G25    29.87S WCI  20
$$

 *****  WEATHER ACROSS CENTRAL AND WESTERN NORTH DAKOTA  *****

CITY           SKY/WX    TMP DP  RH WIND       PRES   REMARKS
JAMESTOWN      CLOUDY    25  21  85 NW10      29.82F WCI  15
6HR MIN TEMP:  19; 6HR MAX TEMP:  26; 6HR PCP: TRACE;

BISMARCK       CLOUDY    27  22  81 N9        29.86F WCI  18
6HR MIN TEMP:  19; 6HR MAX TEMP:  28; 6HR PCP:  0.01;

MINOT          PTSUNNY   23  15  71 W13       29.83F WCI  11
6HR MIN TEMP:  20; 6HR MAX TEMP:  23;

MINOT AFB      FAIR      20  12  72 NW15      29.83F WCI   6
6HR MIN TEMP:  17; 6HR MAX TEMP:  22;

GARRISON         N/A     25  19  78 N8        29.83F WCI  16
6HR MIN TEMP:  18; 6HR MAX TEMP:  25;

WILLISTON      CLOUDY    22  17  81 SW6       29.83F WCI  14
6HR MIN TEMP:  18; 6HR MAX TEMP:  23; 6HR PCP: TRACE;

DICKINSON      CLOUDY    24  18  77 CALM      29.79F
6HR MIN TEMP:  20; 6HR MAX TEMP:  23; 6HR PCP: TRACE;

HETTINGER      CLOUDY    27  19  72 NW13      29.84F WCI  16
6HR MIN TEMP:  17; 6HR MAX TEMP:  30; 6HR PCP: TRACE;

$$

 *****  OTHER OBSERVATIONS NORTHEAST NORTH DAKOTA  *****

CITY           SKY/WX    TMP DP  RH WIND       PRES   REMARKS
WALHALLA       NOT AVBL
LANGDON        NOT AVBL
CAVALIER         N/A     25  18  74 W13       29.80F WCI  13
GRAFTON        FAIR      27  21  80 NW14      29.83F WCI  15
CANDO          NOT AVBL
FORT TOTTEN      N/A     23  23 100 NW7       29.95S WCI  15
ROLLA          FAIR      18  12  79 NW17      29.78F WCI   2
RUGBY            N/A     16  16 100 NW13      29.82F WCI   2
 ***** THE ABOVE OBSERVATIONS ARE NON NWS ARE NOT QUALITY
        CONTROLLED AND MAY MIS-REPORT RAIN FOR SNOW...
$$

 *****  OTHER OBSERVATIONS SOUTHEAST NORTH DAKOTA *****

CITY           SKY/WX    TMP DP  RH WIND       PRES   REMARKS
COOPERSTOWN    MOCLDY    27  23  86 W15       29.82S WCI  15
VALLEY CITY    CLOUDY    27  27 100 W12       29.84F WCI  16
OAKES          NOT AVBL
GWINNER        CLOUDY    32  27  80 W21       29.85F WCI  20
SHEYENNE NWR     N/A     30  20  65 W14       29.95S WCI  19
BUFFALO        NOT AVBL
WYNDMERE         N/A     32  21  64 W17         N/A  WCI  21
 ***** THE ABOVE OBSERVATIONS ARE NON NWS ARE NOT QUALITY
       CONTROLLED AND MAY MIS-REPORT RAIN FOR SNOW...
$$

  *****  WEATHER ACROSS NORTHERN MINNESOTA  *****

CITY           SKY/WX    TMP DP  RH WIND       PRES   REMARKS
FLAG ISLAND    FLURRIES  12  10  92 S15       29.76F WCI  -4
WARROAD        FAIR      19  14  79 SW6       29.77F WCI  11
ROSEAU         CLOUDY    21  16  79 SW6       29.77F WCI  14
HALLOCK        CLOUDY    25  19  80 W8        29.80S WCI  16
THF RVR FALLS    N/A    N/A N/A N/A MISG        N/A
HALSTAD          N/A     29  21  72 W10         N/A  WCI  20
FOSSTON        FAIR      28  18  64 SW16      29.80F WCI  17
BAUDETTE       LGT SNOW  17  11  77 S6        29.78F WCI   9
6HR MIN TEMP:   2; 6HR MAX TEMP:  17; 6HR PCP: TRACE;

WASKISH        LGT SNOW  19  14  79 S3        29.79F
CROOKSTON      CLOUDY    28  23  80 W12       29.82F WCI  18
$$
  *****  WEATHER ACROSS CENTRAL AND WEST MINNESOTA  *****

CITY           SKY/WX    TMP DP  RH WIND       PRES   REMARKS
BEMIDJI        PTSUNNY   26  17  69 W13       29.78F WCI  15
PARK RAPIDS    CLOUDY    24  14  65 SW9       29.82F WCI  14
6HR MIN TEMP:   6; 6HR MAX TEMP:  24; 6HR PCP: TRACE;

WADENA         CLOUDY    27  18  69 W12       29.84F WCI  16
DETROIT LAKES  PTSUNNY   28  21  74 W12       29.83F WCI  18
MOORHEAD       PTSUNNY   28  21  74 W13       29.86S WCI  18
FERGUS FALLS   FLURRIES  28  19  69 SW10      29.90F WCI  19
ELBOW LAKE     FAIR      29  20  69 SW13G18   29.88F HAZE    WCI  18
MORRIS MN      PTSUNNY   30  19  64 SW13      29.89F WCI  20
STAPLES        CLOUDY    25  16  68 SW7       29.85F WCI  17
WHEATON        FAIR      36  18  48 SW17      29.90F
$$
  *****  WEATHER ELSEWHERE ACROSS MINNESOTA  *****

CITY           SKY/WX    TMP DP  RH WIND       PRES   REMARKS
DULUTH         FAIR      18   6  59 NW15      29.79S WCI   4
6HR MIN TEMP:   5; 6HR MAX TEMP:  18;

INTRNTL FALLS  LGT SNOW  16   7  67 W7        29.79F WCI   6
6HR MIN TEMP:   1; 6HR MAX TEMP:  17; 6HR PCP: TRACE;

ELY            FAIR      18   0  45 NW13G22   29.75S WCI   4
CLOQUET        CLOUDY    19   5  53 NW10      29.82S WCI   8
BRAINERD       PTSUNNY   23  12  62 W9        29.87F WCI  13
6HR MIN TEMP:   8; 6HR MAX TEMP:  23;

HIBBING        CLOUDY    16   3  56 NW9       29.80F WCI   4
6HR MIN TEMP:   4; 6HR MAX TEMP:  17;

ALEXANDRIA     PTSUNNY   28  15  58 SW9       29.88F WCI  19
6HR MIN TEMP:  11; 6HR MAX TEMP:  28;

SAINT CLOUD    FAIR      28  14  55 NW12G22   29.91F WCI  18
6HR MIN TEMP:  12; 6HR MAX TEMP:  28;

MINNEAPOLIS    FAIR      28   5  37 NW15G21   29.94S WCI  16
6HR MIN TEMP:  14; 6HR MAX TEMP:  28;

$$

  *****  WEATHER ACROSS SOUTH DAKOTA  *****

CITY           SKY/WX    TMP DP  RH WIND       PRES   REMARKS
SIOUX FALLS    CLOUDY    24  17  74 SW9       30.00F WCI  14
6HR MIN TEMP:  11; 6HR MAX TEMP:  24;

BROOKINGS      FAIR      29  18  63 SW15      29.93F WCI  18
WATERTOWN      FAIR      30  16  56 SW21      29.89F WCI  17
6HR MIN TEMP:  11; 6HR MAX TEMP:  30;

HURON          CLOUDY    33  16  49 S10G21    29.93F WCI  25
6HR MIN TEMP:  18; 6HR MAX TEMP:  33;

SISSETON         N/A     33  18  53 W16       29.87F WCI  23
ABERDEEN       FAIR      33  17  51 SW16G22   29.88F WCI  23
6HR MIN TEMP:  13; 6HR MAX TEMP:  33;

MITCHELL       PTSUNNY   29  16  58 SW15      29.97F WCI  18
PIERRE         FAIR      32  19  58 W7        29.87F
6HR MIN TEMP:  20; 6HR MAX TEMP:  33;

MOBRIDGE       FAIR      38  20  48 S8        29.81F
RAPID CITY     FAIR      32  21  64 N7        29.85F
6HR MIN TEMP:  16; 6HR MAX TEMP:  32;

$$

  *****  SOME WEATHER IN NEARBY STATES *****

CITY           SKY/WX    TMP DP  RH WIND       PRES   REMARKS
GLASGOW MT     CLOUDY    28  23  81 W13       29.77F WCI  17
6HR MIN TEMP:  20; 6HR MAX TEMP:  26; 6HR PCP:  0.01;

GREAT FALLS MT FAIR      30   7  37 W22G32    29.77F WCI  17
6HR MIN TEMP:  15; 6HR MAX TEMP:  30;

CHEYENNE WY    FAIR      23   5  46 W21G29    29.85F WCI   8
6HR MIN TEMP:   7; 6HR MAX TEMP:  23;

SCOTTSBLUFF NE FAIR      20   9  62 NW9       29.94F WCI   9
6HR MIN TEMP:  -2; 6HR MAX TEMP:  20;

OMAHA NE       PTSUNNY   27  17  66 SE3       30.13F
6HR MIN TEMP:  14; 6HR MAX TEMP:  30;

DES MOINES IA  PTSUNNY   26  13  57 NW13      30.09S WCI  15
6HR MIN TEMP:  17; 6HR MAX TEMP:  26;

DAVENPORT IA   PTSUNNY   25  16  68 W23       29.98R WCI  10
6HR MIN TEMP:  18; 6HR MAX TEMP:  24; 6HR PCP: TRACE;

CHICAGO IL     FLURRIES  25  14  63 W20G28    29.85R WCI  11
6HR MIN TEMP:  23; 6HR MAX TEMP:  26; 6HR PCP: TRACE;

EAU CLAIRE WI  FAIR      20   4  50 W14G21    29.88R WCI   7
6HR MIN TEMP:  10; 6HR MAX TEMP:  20; 6HR PCP: TRACE;

LA CROSSE WI   FAIR      23   8  52 NW17      29.92R WCI   9
6HR MIN TEMP:  16; 6HR MAX TEMP:  23;

$$

  *****  SOME NATIONAL WEATHER *****

CITY           SKY/WX    TMP DP  RH WIND       PRES   REMARKS
LA GUARDIA NY  PTSUNNY   62  54  74 S13       29.64F
6HR MIN TEMP:  51; 6HR MAX TEMP:  63;

RALEIGH NC     PTSUNNY   79  56  45 SW23G37   29.62F



USA.gov is the U.S. government's official web portal to all federal, state and local government web resources and services.